Flag Weather past 2 weeks in Lanchow, Gansu, China

Now
36 °F

Passing clouds.


Feels Like: 31 °F
Forecast: 32 / 39 °F
Wind: 6 mph from East

Location: Lanzhou / Zhongchuan

Current Time: Oct 31, 2014 at 9:39:25 PM

Latest Report: Oct 31, 2014 at 9:00 PM


Visibility: N/A

Pressure: 30.36 "Hg

Humidity: 48%

Dew point: 18 °F

Location of LanchowLocation

Historic Weather in Lanchow — Graph

°F

Lanchow temperature yesterday

Maximum temperature yesterday: 46 °F (at 1:00 PM)
Minimum temperature yesterday: 34 °F (at 9:00 PM)
Average temperature yesterday: 41 °F

Past Weeks' High & Low Weather Summary

 TemperatureHumidityPressure
High66 °F (Oct 24, 3:00 PM)100% (Oct 16, 10:00 PM)30.36 "Hg (Oct 16, 10:00 PM)
Low32 °F (Oct 17, 6:00 AM)22% (Oct 22, 2:00 PM)30.01 "Hg (Oct 27, 5:00 PM)
Average46 °F68%30.18 "Hg
* Reported Oct 16 8:00 PM — Oct 31 8:00 PM, Lanchow, Weather by CustomWeather, © 2014

Note: Actual official high and low records may vary slightly from our data, if they occured in-between our weather recording intervals... More about our weather records

Advertising

Lanchow weather history for previous 24 hours

 ConditionsComfort  
Time TempWeatherWind HumidityBarometerVisibility
8:00 PM
Oct 31
36 °FPassing clouds.8 mph44%30.33 "HgN/A
7:00 PM36 °FScattered clouds.6 mph48%30.30 "HgN/A
6:00 PM37 °FScattered clouds.6 mph52%30.27 "HgN/A
5:00 PM37 °FPartly sunny.8 mph52%30.27 "HgN/A
4:00 PM39 °FScattered clouds.10 mph61%30.24 "HgN/A
3:00 PM41 °FScattered clouds.8 mph57%30.24 "HgN/A
2:00 PM41 °FScattered clouds.6 mph61%30.24 "HgN/A
1:00 PM39 °FScattered clouds.6 mph61%30.27 "HgN/A
12:00 PM39 °FPassing clouds.6 mph61%30.27 "HgN/A
11:00 AM37 °FScattered clouds.3 mph70%30.30 "HgN/A
10:00 AM36 °FScattered clouds.6 mph70%30.30 "HgN/A
9:00 AM34 °FBroken clouds.3 mph87%30.30 "Hg5 mi
8:00 AM32 °FPartly cloudy.3 mph93%30.27 "Hg4 mi
7:00 AM32 °FPartly cloudy.3 mph93%30.24 "HgN/A
6:00 AM32 °FPartly cloudy.3 mph93%30.21 "HgN/A
5:00 AM32 °FPartly cloudy.1 mph87%30.21 "HgN/A
4:00 AM32 °FPartly cloudy.3 mph87%30.24 "HgN/A
3:00 AM32 °FPartly cloudy.1 mph87%30.24 "HgN/A
2:00 AM32 °FPartly cloudy.3 mph87%30.24 "HgN/A
1:00 AM34 °FPassing clouds.3 mph81%30.24 "HgN/A
12:00 AM34 °FPassing clouds.6 mph81%30.27 "HgN/A
11:00 PM
Oct 30
34 °FPassing clouds.3 mph81%30.24 "HgN/A
10:00 PM34 °FPassing clouds.6 mph87%30.24 "HgN/A
9:00 PM34 °FPassing clouds.6 mph87%30.21 "HgN/A
Weather by CustomWeather, © 2014

See weather overviewHow to use our weather pages